| time (UTC) | temp C | wind direction | speed KPH | gust KPH | rain 1hr cm | rain 24hr cm | rain mn cm | humidity % | barometer mb |
| 20260510131003 | 13 | 306 | 1.6 | 19.3 | 0.00 | 2.39 | 0.00 | 88 | 1012.3 |
| 20260510130003 | 13 | 90 | 1.6 | 8.0 | 0.00 | 2.44 | 0.00 | 90 | 1012.1 |
| 20260510125003 | 13 | 34 | 0.0 | 4.8 | 0.00 | 2.46 | 0.00 | 90 | 1012.0 |
| 20260510124005 | 12 | 76 | 0.0 | 4.8 | 0.00 | 2.49 | 0.00 | 91 | 1012.0 |
| 20260510105004 | 11 | 67 | 0.0 | 4.8 | 0.00 | 2.59 | 0.00 | 94 | 1011.4 |
| 20260510104005 | 11 | 46 | 0.0 | 4.8 | 0.00 | 2.59 | 0.00 | 94 | 1011.4 |
| 20260509164003 | 10 | 254 | 0.0 | 3.2 | 0.10 | 2.59 | 0.64 | 93 | 1012.2 |
| 20260509163004 | 9 | 254 | 0.0 | 4.8 | 0.13 | 2.59 | 0.64 | 93 | 1012.3 |
| 20260509162003 | 9 | 255 | 0.0 | 3.2 | 0.13 | 2.59 | 0.61 | 94 | 1012.4 |
| 20260509160003 | 8 | 186 | 1.6 | 3.2 | 0.18 | 2.57 | 0.58 | 93 | 1012.8 |
| 20260509155004 | 8 | 182 | 1.6 | 4.8 | 0.18 | 2.54 | 0.56 | 93 | 1013.0 |
| 20260509152004 | 7 | 204 | 0.0 | 3.2 | 0.23 | 2.46 | 0.48 | 92 | 1013.5 |
| 20260509151004 | 7 | 202 | 0.0 | 3.2 | 0.25 | 2.46 | 0.46 | 92 | 1013.5 |
| 20260509150003 | 7 | 202 | 3.2 | 4.8 | 0.23 | 2.41 | 0.41 | 91 | 1013.4 |
| 20260509145004 | 7 | 227 | 1.6 | 3.2 | 0.23 | 2.39 | 0.38 | 91 | 1013.4 |
| 20260509144003 | 7 | 227 | 0.0 | 1.6 | 0.23 | 2.36 | 0.36 | 91 | 1013.5 |
| 20260509143004 | 6 | 227 | 0.0 | 1.6 | 0.20 | 2.31 | 0.30 | 91 | 1013.5 |
| 20260509142004 | 6 | 227 | 1.6 | 3.2 | 0.15 | 2.26 | 0.25 | 90 | 1013.4 |
| 20260509140005 | 6 | 225 | 1.6 | 4.8 | 0.10 | 2.18 | 0.18 | 90 | 1013.4 |
| 20260509135004 | 6 | 257 | 1.6 | 4.8 | 0.08 | 2.16 | 0.15 | 90 | 1013.4 |
| 20260509134003 | 6 | 263 | 1.6 | 4.8 | 0.08 | 2.13 | 0.13 | 90 | 1013.4 |
| 20260509133003 | 6 | 266 | 1.6 | 4.8 | 0.05 | 2.11 | 0.10 | 90 | 1013.3 |
| 20260509132003 | 6 | 269 | 0.0 | 3.2 | 0.05 | 2.11 | 0.10 | 90 | 1013.5 |